Wind_Speed
38 38 36 36 35 33 30 26 23 27 31 32 32 30 29 30 29 29 28 28 27 30 29 28 28 27 27 28 29 31 31 33 33 34 35 35 37 39 41 43 43 46 49 51
40 39 37 34 33 30 26 23 22 26 31 32 33 32 29 31 31 31 30 30 28 29 30 32 29 30 31 31 32 34 34 33 34 35 36 37 39 41 42 43 46 48 51 52
36 34 35 34 32 31 28 25 26 27 31 33 35 34 31 32 32 33 33 32 31 32 34 34 33 31 32 34 35 35 35 35 36 37 37 39 39 41 43 45 47 52 53 55
40 38 38 35 34 33 32 31 30 30 31 35 36 34 34 35 36 35 35 34 34 34 35 36 36 34 35 35 36 36 36 36 36 36 37 39 41 42 43 45 49 52 54 55
47 46 45 43 41 38 37 35 35 33 34 34 37 35 37 36 38 37 35 36 36 36 37 37 37 37 36 36 36 37 37 36 36 36 38 40 40 43 45 48 50 52 56 58
55 53 52 51 50 48 45 43 42 41 38 33 37 38 38 40 40 38 38 36 37 37 38 38 38 37 36 37 37 37 36 36 36 38 39 42 43 45 48 50 53 56 58 59
64 63 62 59 59 56 54 51 51 49 46 41 42 41 43 42 40 41 39 38 38 38 38 40 40 38 38 38 38 37 37 38 39 41 42 44 46 48 51 54 57 59 59 64
65 67 64 64 64 63 61 59 59 56 54 50 45 44 47 47 46 44 43 42 41 41 42 42 43 40 39 39 40 40 41 42 41 42 44 46 49 51 53 56 59 60 64 69
62 66 64 67 67 67 67 64 65 60 58 56 54 50 50 50 51 49 48 47 47 45 45 44 44 44 41 42 43 44 43 42 42 43 47 51 52 54 56 58 60 64 69 69
53 54 56 61 65 69 71 70 69 66 63 60 57 57 56 52 52 53 51 51 50 48 48 48 48 47 46 46 45 44 45 45 46 48 51 54 55 56 58 60 64 67 69 74
47 48 49 50 55 59 61 65 70 71 68 65 62 61 64 57 56 55 54 54 50 47 48 49 50 49 48 48 47 47 46 47 50 52 53 52 54 57 61 65 67 69 72 77
36 35 39 40 42 48 54 58 59 63 68 69 65 62 67 62 61 62 57 56 55 49 48 48 50 49 48 48 47 46 48 48 50 53 51 55 59 63 65 64 68 71 74 79
36 33 31 29 30 32 33 44 51 54 58 61 65 62 68 68 65 65 64 61 59 55 54 51 49 50 49 50 51 51 50 50 51 54 57 60 62 64 65 68 70 73 77 79
39 37 37 43 42 35 31 32 35 44 50 57 61 64 68 71 69 70 69 67 65 61 58 59 57 54 52 51 51 51 51 53 56 59 62 63 62 64 67 69 72 75 75 76
41 44 45 41 44 37 33 31 35 36 38 47 59 64 66 67 69 72 73 72 70 68 65 64 63 61 60 59 58 58 58 60 63 65 66 64 65 67 68 70 72 74 72 74
49 45 48 42 44 47 35 36 33 36 38 42 45 53 66 67 66 68 72 73 73 72 69 68 69 66 65 62 62 63 64 64 64 65 65 66 67 68 67 70 73 69 71 70
53 48 48 45 48 47 36 45 43 42 43 42 43 45 51 58 67 71 68 70 70 70 67 67 70 70 67 65 65 66 67 66 67 67 66 65 65 65 68 70 67 67 67 68
57 54 51 45 48 40 45 49 48 47 47 52 48 43 47 48 55 64 66 71 70 67 64 64 66 66 65 63 63 63 63 61 63 63 63 63 65 62 66 65 63 63 67 70
64 60 58 54 53 45 47 50 46 45 46 53 50 50 50 50 51 58 53 60 66 69 66 63 63 63 63 63 64 64 63 59 58 62 63 61 60 59 62 60 60 62 66 69
71 65 60 60 59 56 55 60 54 52 52 53 51 54 53 50 55 58 46 50 57 59 63 66 65 61 60 59 59 57 54 54 54 56 59 55 54 57 57 57 58 64 71 72
75 68 64 63 61 59 63 63 60 60 64 59 54 56 56 54 57 57 52 47 48 52 55 56 60 62 63 62 58 52 47 50 52 53 52 50 54 56 55 57 59 66 70 74
75 72 69 66 66 60 66 65 68 66 64 63 58 53 56 56 57 58 55 53 48 49 49 51 52 52 53 54 54 52 51 49 49 49 49 52 51 52 53 58 61 67 70 77
74 72 69 69 66 66 65 70 70 67 69 65 60 54 57 55 57 60 60 56 52 51 49 47 45 50 51 48 43 34 35 35 41 44 46 44 47 49 52 54 59 65 73 78
70 69 68 66 64 72 70 70 68 70 67 67 59 57 57 52 56 59 57 57 53 52 52 44 41 39 37 34 27 28 25 27 33 35 42 44 44 45 51 55 60 65 73 78
69 68 69 68 71 74 73 69 69 66 67 69 62 58 53 53 55 58 58 55 54 55 53 46 43 37 28 20 23 23 23 23 31 39 44 45 49 51 55 58 63 69 75 75
71 72 70 69 75 74 71 70 69 70 71 66 61 56 53 48 51 56 56 55 55 54 51 50 48 35 21 22 26 29 27 27 31 37 39 42 54 52 59 59 66 70 74 79
Wind_Direction
262 265 265 267 267 267 266 265 272 281 280 285 290 285 275 276 275 272 272 274 279 279 283 282 281 279 280 280 282 285 286 287 286 290 295 299 303 308 311 313 313 311 309 309
263 265 264 262 259 260 260 266 273 275 279 285 286 286 273 277 277 276 274 274 275 278 279 279 281 286 288 290 292 293 295 295 296 299 306 308 307 307 308 310 308 307 307 308
256 258 259 258 259 259 259 263 270 271 277 283 285 287 272 276 280 280 279 279 279 280 282 284 287 289 293 295 295 296 298 302 305 307 307 306 307 307 308 307 306 306 308 307
255 255 259 259 260 262 263 265 271 276 278 283 283 282 278 276 279 281 282 282 281 281 282 286 290 293 294 295 296 300 303 304 304 305 305 306 306 304 304 305 306 308 308 309
255 258 260 261 261 263 266 267 271 275 280 280 279 280 276 276 276 276 278 278 280 282 283 286 290 292 293 293 295 298 302 302 302 303 305 305 305 306 308 308 309 310 310 313
258 259 260 263 263 262 263 266 269 269 271 273 273 277 273 272 274 274 273 276 277 281 283 286 287 289 290 291 294 298 298 300 303 305 305 305 306 307 308 310 311 311 312 314
259 261 263 262 263 264 264 264 266 268 269 265 267 270 266 269 268 267 269 269 270 273 276 280 283 285 287 291 293 294 296 298 301 301 303 304 307 310 311 310 311 311 313 316
257 258 260 259 260 261 262 261 261 263 265 263 265 264 263 266 265 268 267 265 265 268 270 273 277 280 284 287 290 291 291 295 297 299 303 305 308 309 310 310 310 312 315 317
258 258 256 256 256 257 256 258 259 260 259 261 261 259 262 262 265 265 268 268 269 266 267 269 272 276 278 279 282 288 293 294 297 301 304 305 307 308 308 309 311 314 316 316
264 263 259 256 256 255 255 255 255 255 255 256 255 257 257 259 262 263 265 268 272 272 271 268 269 272 275 278 283 287 290 294 298 301 301 304 306 307 308 310 314 315 315 317
276 273 264 260 257 255 256 256 255 255 254 253 252 254 255 257 256 256 259 263 266 273 275 275 276 276 278 282 285 289 292 295 298 299 300 304 305 306 308 312 313 314 316 316
280 285 284 273 268 262 257 256 256 253 253 253 253 252 256 253 254 257 254 256 260 265 271 275 277 279 281 283 285 287 289 292 295 297 300 300 302 305 309 311 311 314 315 316
284 285 280 288 286 276 272 263 260 255 252 252 252 251 251 254 251 255 256 256 257 256 261 265 270 274 277 279 282 285 287 290 291 292 296 300 303 305 307 309 311 313 315 315
286 282 280 281 283 284 282 283 273 264 256 249 250 249 251 252 253 255 256 256 257 259 259 263 263 267 270 274 278 281 284 285 287 291 295 298 301 303 305 309 311 312 314 314
288 280 277 280 281 276 280 288 284 278 269 260 251 249 251 253 254 255 257 258 258 258 259 261 264 266 269 271 275 278 282 284 289 292 294 298 302 305 307 310 310 313 313 313
279 283 277 277 276 282 284 282 281 282 269 265 262 257 254 253 255 257 258 259 260 261 261 263 266 267 269 273 276 278 281 284 287 291 294 298 301 305 308 308 311 311 312 315
273 273 277 271 270 275 293 282 274 274 276 274 266 263 263 260 257 256 257 263 263 263 264 266 267 269 271 273 275 277 280 284 287 289 292 297 300 305 305 308 310 311 313 314
270 269 270 265 273 273 275 275 277 279 273 271 273 279 270 267 264 262 259 259 261 262 263 263 265 267 269 271 274 276 280 283 287 289 292 296 302 302 304 307 309 312 313 314
267 266 266 267 269 268 265 269 268 278 281 277 277 275 276 269 268 267 265 264 265 263 263 264 264 267 269 271 272 276 280 284 286 289 293 298 300 301 304 307 312 314 315 317
263 264 266 265 265 262 261 266 276 274 274 280 276 272 274 272 265 270 269 267 267 269 267 265 264 266 269 272 274 279 282 282 286 288 293 299 299 300 304 308 312 313 316 316
263 261 263 263 267 265 260 268 271 266 273 280 277 268 271 273 268 267 270 270 270 269 269 269 270 268 268 269 272 276 279 280 284 289 294 295 299 301 304 308 312 313 317 319
258 261 263 263 261 264 265 266 267 271 269 275 285 269 269 269 268 265 268 271 271 272 272 272 273 275 274 273 273 273 276 280 282 286 291 295 297 299 306 311 313 314 318 318
254 254 258 263 262 262 264 265 264 269 273 278 286 262 261 263 263 260 262 265 270 270 271 271 274 275 276 278 280 272 270 276 280 287 293 296 300 307 311 314 316 316 315 318
250 254 253 255 258 263 261 263 266 265 273 279 276 261 259 258 260 256 258 263 266 268 271 275 274 278 287 285 275 253 261 278 292 294 292 298 304 312 317 315 314 314 314 321
248 251 253 253 255 257 260 262 265 269 271 278 269 265 263 252 252 254 255 259 262 266 268 272 275 280 286 275 244 235 253 274 286 284 291 299 299 306 311 313 316 313 316 322
247 251 254 253 255 258 263 266 266 267 270 277 263 262 263 246 247 250 253 256 262 263 265 266 266 271 270 248 232 234 253 264 275 287 293 302 309 305 306 310 312 312 320 323
Height
10880 10882 10884 10886 10886 10887 10887 10889 10887 10884 10880 10879 10878 10877 10876 10876 10878 10879 10879 10879 10879 10877 10876 10876 10875 10874 10873 10872 10870 10868 10867 10865 10862 10858 10854 10851 10846 10842 10837 10832 10828 10823 10818 10812
10873 10875 10877 10878 10879 10880 10881 10882 10881 10878 10874 10873 10872 10871 10871 10870 10870 10871 10872 10873 10873 10872 10872 10871 10871 10869 10867 10866 10864 10862 10860 10857 10854 10849 10846 10842 10837 10833 10830 10825 10820 10816 10811 10804
10865 10868 10869 10871 10872 10873 10875 10874 10874 10872 10869 10868 10867 10866 10866 10864 10864 10864 10865 10866 10867 10866 10866 10864 10863 10862 10860 10858 10856 10854 10851 10848 10845 10842 10838 10833 10830 10826 10822 10818 10813 10808 10802 10796
10856 10860 10860 10862 10864 10866 10867 10867 10867 10866 10864 10862 10860 10861 10860 10860 10858 10858 10858 10859 10859 10859 10858 10856 10855 10854 10853 10850 10848 10845 10843 10841 10838 10834 10830 10827 10823 10820 10815 10810 10805 10799 10794 10786
10847 10850 10851 10853 10857 10858 10858 10860 10860 10861 10859 10857 10854 10854 10854 10853 10852 10852 10852 10851 10851 10851 10850 10850 10848 10847 10846 10843 10841 10839 10837 10834 10831 10827 10824 10821 10817 10811 10806 10801 10796 10791 10783 10776
10836 10839 10841 10844 10845 10847 10850 10851 10852 10852 10852 10852 10846 10846 10844 10845 10845 10844 10844 10844 10843 10843 10843 10842 10841 10840 10839 10837 10835 10832 10830 10827 10823 10820 10817 10813 10808 10804 10798 10793 10787 10780 10773 10764
10822 10824 10827 10833 10833 10836 10839 10842 10841 10843 10844 10843 10840 10839 10833 10836 10838 10836 10837 10836 10836 10836 10835 10834 10833 10832 10831 10830 10828 10826 10823 10820 10817 10814 10810 10805 10800 10795 10789 10782 10776 10769 10762 10754
10807 10808 10817 10818 10819 10823 10826 10829 10828 10832 10833 10833 10836 10831 10825 10826 10827 10829 10829 10828 10828 10827 10826 10826 10824 10824 10823 10822 10820 10819 10816 10813 10811 10807 10802 10797 10792 10786 10779 10773 10766 10759 10753 10744
10792 10793 10803 10801 10804 10806 10808 10815 10814 10821 10820 10822 10822 10823 10818 10818 10815 10820 10821 10820 10820 10819 10818 10818 10818 10815 10815 10815 10813 10811 10809 10806 10802 10798 10793 10788 10783 10777 10771 10764 10758 10750 10741 10733
10779 10780 10784 10787 10786 10789 10793 10797 10799 10803 10807 10809 10809 10809 10807 10810 10809 10808 10811 10811 10811 10811 10810 10809 10808 10808 10807 10806 10806 10804 10801 10797 10793 10789 10784 10779 10773 10768 10762 10755 10749 10740 10729 10718
10765 10766 10769 10771 10772 10774 10777 10778 10783 10785 10791 10792 10797 10795 10789 10799 10794 10797 10800 10799 10802 10803 10801 10800 10799 10800 10799 10797 10796 10794 10791 10788 10783 10779 10775 10771 10765 10759 10753 10746 10737 10728 10718 10707
10756 10756 10754 10758 10759 10760 10762 10764 10766 10769 10772 10776 10780 10786 10773 10783 10779 10780 10786 10787 10789 10793 10791 10791 10791 10791 10791 10789 10787 10785 10782 10779 10775 10769 10767 10761 10756 10750 10744 10736 10726 10716 10706 10695
10748 10750 10747 10747 10747 10749 10749 10748 10751 10754 10759 10763 10763 10769 10760 10762 10768 10764 10770 10775 10776 10781 10779 10780 10780 10779 10780 10778 10776 10775 10772 10769 10765 10760 10757 10752 10747 10740 10733 10724 10715 10705 10695 10684
10738 10739 10741 10739 10736 10741 10741 10739 10739 10740 10743 10745 10747 10747 10747 10745 10752 10752 10753 10760 10763 10766 10767 10766 10769 10769 10769 10767 10766 10764 10763 10760 10755 10751 10746 10743 10738 10731 10722 10714 10704 10694 10683 10671
10730 10729 10727 10728 10727 10729 10732 10733 10730 10730 10729 10729 10728 10730 10730 10734 10738 10740 10739 10742 10747 10751 10755 10755 10755 10757 10756 10757 10757 10755 10752 10748 10744 10739 10735 10732 10726 10718 10711 10702 10692 10682 10671 10659
10719 10718 10715 10718 10716 10714 10723 10721 10721 10719 10714 10714 10715 10718 10714 10720 10724 10726 10722 10725 10733 10736 10741 10744 10743 10745 10746 10748 10746 10743 10739 10736 10734 10727 10725 10721 10715 10707 10699 10690 10680 10671 10660 10649
10704 10706 10703 10708 10702 10704 10713 10704 10705 10706 10704 10702 10703 10705 10705 10709 10709 10705 10711 10712 10716 10721 10729 10732 10730 10731 10734 10737 10733 10730 10727 10725 10721 10718 10714 10710 10705 10697 10687 10679 10670 10660 10649 10639
10691 10691 10690 10694 10692 10698 10698 10689 10690 10690 10690 10685 10692 10697 10697 10695 10691 10690 10699 10696 10697 10704 10712 10714 10713 10715 10719 10721 10718 10717 10715 10714 10707 10704 10703 10698 10693 10684 10676 10668 10659 10649 10639 10628
10671 10672 10675 10677 10680 10687 10684 10677 10677 10676 10673 10671 10680 10681 10682 10683 10681 10670 10685 10686 10684 10687 10692 10698 10700 10702 10704 10706 10705 10706 10705 10701 10696 10692 10691 10686 10680 10672 10665 10658 10649 10640 10629 10617
10649 10653 10656 10659 10663 10668 10664 10660 10665 10666 10658 10659 10667 10666 10665 10669 10666 10660 10674 10673 10672 10673 10675 10679 10684 10688 10690 10693 10693 10696 10695 10689 10685 10682 10680 10675 10669 10662 10656 10648 10641 10629 10620 10609
10626 10634 10638 10637 10644 10649 10646 10644 10650 10647 10640 10651 10650 10650 10652 10652 10653 10652 10657 10663 10663 10662 10663 10664 10666 10671 10676 10678 10681 10685 10682 10679 10675 10672 10670 10665 10659 10653 10645 10639 10631 10619 10611 10600
10611 10613 10616 10617 10621 10629 10623 10630 10628 10631 10630 10631 10636 10639 10637 10637 10639 10642 10643 10647 10652 10652 10652 10653 10657 10658 10659 10663 10668 10671 10671 10669 10665 10663 10660 10655 10650 10644 10638 10630 10621 10612 10602 10590
10588 10592 10593 10597 10601 10603 10611 10607 10610 10613 10612 10617 10621 10619 10620 10623 10624 10627 10629 10633 10639 10641 10643 10645 10649 10644 10647 10652 10656 10658 10659 10659 10656 10655 10652 10647 10643 10636 10630 10623 10613 10605 10595 10582
10564 10567 10575 10577 10583 10578 10585 10587 10593 10595 10601 10600 10600 10599 10604 10609 10609 10611 10615 10619 10624 10629 10632 10638 10637 10637 10639 10642 10645 10648 10650 10649 10648 10646 10643 10640 10635 10629 10623 10615 10607 10597 10585 10574
10540 10546 10552 10559 10557 10557 10562 10571 10576 10583 10584 10581 10577 10582 10586 10591 10594 10598 10602 10606 10611 10616 10621 10627 10627 10630 10632 10633 10636 10639 10640 10640 10641 10638 10635 10633 10627 10621 10614 10607 10599 10587 10576 10564
10518 10523 10529 10536 10533 10541 10547 10552 10557 10561 10559 10564 10563 10565 10568 10573 10580 10584 10587 10593 10599 10604 10609 10614 10618 10623 10625 10625 10628 10630 10631 10631 10631 10631 10629 10625 10619 10613 10607 10601 10591 10582 10572 10557